Weather in Aristovo

Russia / Kaluga Oblast     54°36′12″N   36°40′14″E
temp.,
°C
wind,
m/s
gust,
m/s
humid.,
%
clouds,
%
prec.,
mm/h
press.,
hPa
HPBL,
m
30 june, thu
thu3000:00+13s11800 0.0 102011
03:00+11n118334 0.0 102010
06:00+14nnw11815 0.0 101940
09:00+18nw23660 0.0 1019499
12:00+22n34475 0.0 10181816
15:00+23nnw464525 0.0 10172157
18:00+22nnw36575 0.0 1016381
21:00+16nw487566 0.0 1017120
1 july, fri
fri100:00+14n357847 0.0 101865
03:00+12n35790 0.0 101871
06:00+13nne38840 0.0 1019219
09:00+17ne57585 0.0 1020816
12:00+19ne57470 0.0 10201648
15:00+20ene47461 0.0 10201766
18:00+20ene36570 0.0 1020682
21:00+14ne33710 0.0 102222
2 july, sat
sat200:00+11ene22720 0.0 102312
03:00+9nnw11715 0.0 102310
06:00+11nw237413 0.0 102381
09:00+18n35575 0.0 1023511
12:00+22n24455 0.0 10211446
15:00+24nw34445 0.0 10201696
18:00+23wnw35591 0.0 1019296
21:00+18wnw34681 0.0 101941
3 july, sun
sun300:00+16wnw467934 0.0 101884
03:00+16wnw39735 0.0 1018203
06:00+16nw3987100 0.1 1017204
09:00+21nnw457694 0.3 1016385
12:00+26n3657100 0.0 10161444
15:00+27n3651100 0.0 10152257
18:00+26nne24596 0.0 1014248
21:00+20nne22691 0.0 101612
4 july, mon
mon400:00+16nw22880 0.0 101717
03:00+15n11880 0.0 101712
06:00+17ene11830 0.0 101736
09:00+22e23670 0.0 1018414
12:00+25ese22580 0.0 10181048
15:00+26se21512 0.0 10171615
18:00+26sse22600 0.0 1017646
21:00+20sse23774 0.0 101821